This is the latest recevied weather packets stored in our database for station/object WO5CID. If no packets are shown the sender has not sent any weather packets the latest 10 day(s).
| Time | Temp. | Humidity | Pressure | Rain* | Wind** | Luminosity | Snow |
|---|---|---|---|---|---|---|---|
| 1778196826 | 30.56° C | 46% | 1012.2 hPa | 0 mm | - | 14 W/m² | - |
| 1778196524 | 30.56° C | 47% | 1012 hPa | 0 mm | - | 17 W/m² | - |
| 1778196220 | 30.56° C | 46% | 1012 hPa | 0 mm | - | 22 W/m² | - |
| 1778195918 | 30.56° C | 45% | 1012.1 hPa | 0 mm | - | 29 W/m² | - |
| 1778195614 | 31.11° C | 45% | 1012 hPa | 0 mm | - | 47 W/m² | - |
| 1778195310 | 31.11° C | 44% | 1011.9 hPa | 0 mm | - | 62 W/m² | - |
| 1778195008 | 31.11° C | 44% | 1011.7 hPa | 0 mm | - | 63 W/m² | - |
| 1778194707 | 31.67° C | 43% | 1011.8 hPa | 0 mm | - | 58 W/m² | - |
| 1778194404 | 31.67° C | 41% | 1011.7 hPa | 0 mm | - | 54 W/m² | - |
| 1778194100 | 32.22° C | 40% | 1011.7 hPa | 0 mm | - | 64 W/m² | - |
| 1778193797 | 32.22° C | 39% | 1011.5 hPa | 0 mm | - | 74 W/m² | - |
| 1778193493 | 32.78° C | 38% | 1011.6 hPa | 0 mm | - | 127 W/m² | - |
| 1778193189 | 32.78° C | 37% | 1011.6 hPa | 0 mm | - | 140 W/m² | - |
| 1778192887 | 32.78° C | 36% | 1011.6 hPa | 0 mm | - | 157 W/m² | - |
| 1778192583 | 32.78° C | 36% | 1011.7 hPa | 0 mm | - | 170 W/m² | - |
| 1778192280 | 33.33° C | 36% | 1011.7 hPa | 0 mm | - | 169 W/m² | - |
| 1778191976 | 33.33° C | 34% | 1011.6 hPa | 0 mm | - | 148 W/m² | - |
| 1778191672 | 33.33° C | 33% | 1011.9 hPa | 0 mm | - | 99 W/m² | - |
| 1778191371 | 33.89° C | 33% | 1011.8 hPa | 0 mm | - | 194 W/m² | - |
| 1778191067 | 33.89° C | 31% | 1011.7 hPa | 0 mm | - | 274 W/m² | - |
| 1778190765 | 33.89° C | 31% | 1011.7 hPa | 0 mm | - | 316 W/m² | - |
| 1778190461 | 33.33° C | 31% | 1011.8 hPa | 0 mm | - | 345 W/m² | - |
| 1778190159 | 33.33° C | 32% | 1012 hPa | 0 mm | - | 384 W/m² | - |
| 1778189854 | 33.33° C | 32% | 1012 hPa | 0 mm | - | 359 W/m² | - |
| 1778189551 | 33.89° C | 30% | 1012 hPa | 0 mm | - | 199 W/m² | - |
* Rain latest hour (hover to see other rain measurements)
** Current wind speed in m/s (hover to see current wind gust speed)